Temperature
17 17 17 17 17 14 14 13 13 14 14 14 14 14 16 17 17 16 16 16 16 16 16 15 15 15 15 14 14 13 12 12 11 11 10 10 10 10 10 10 10 10 10 10
18 18 17 17 17 15 14 15 14 14 14 14 16 16 16 17 17 17 17 16 16 16 16 15 15 15 15 14 14 13 12 12 11 11 10 10 10 10 10 9 10 10 10 10
17 17 18 18 18 17 16 15 15 15 15 15 16 16 17 18 18 17 17 17 17 16 16 16 15 15 15 14 14 13 12 12 11 11 10 10 10 10 9 9 9 9 9 10
15 18 19 19 19 18 17 17 14 15 15 16 17 18 19 19 18 18 17 17 17 16 16 16 15 15 15 14 14 13 12 12 11 10 10 10 10 10 9 9 9 9 9 9
13 16 17 18 19 19 19 19 18 16 16 17 17 17 19 20 19 19 18 17 17 17 16 16 16 15 15 14 14 13 12 12 11 11 10 10 10 10 10 9 9 9 9 9
13 17 18 19 19 20 19 19 19 19 18 17 16 15 17 20 20 19 18 18 17 17 16 16 16 15 15 15 14 13 13 12 11 11 10 10 10 10 10 9 9 9 9 9
13 15 15 16 18 19 19 18 20 20 20 18 17 18 20 20 20 20 19 18 17 17 17 16 16 16 15 15 14 14 13 12 12 11 11 10 10 10 10 10 10 10 9 9
12 15 17 18 18 17 18 20 20 21 21 20 21 21 20 20 20 20 19 19 18 17 17 17 16 16 16 15 15 14 13 13 12 12 11 11 10 10 10 10 10 10 10 10
13 15 16 16 16 17 18 19 19 20 20 20 20 21 21 20 20 20 19 19 18 18 17 17 17 16 16 16 15 15 14 13 13 12 12 11 11 10 10 10 10 10 10 10
13 15 15 14 15 16 18 18 19 19 20 20 20 20 20 20 20 20 20 19 19 18 18 17 17 17 17 16 15 15 15 14 13 13 12 12 11 11 10 10 10 10 10 10
14 15 15 15 14 16 17 19 19 20 20 20 20 20 20 20 20 20 19 19 19 18 18 18 17 17 17 16 16 16 15 15 14 13 13 12 12 11 11 11 10 10 10 10
14 13 13 12 13 15 17 18 18 19 19 19 19 19 19 19 19 19 19 19 18 18 18 18 18 17 17 17 16 16 16 15 15 14 13 13 12 12 11 11 11 10 10 10
12 13 13 12 13 14 15 15 16 17 17 17 17 17 18 18 18 18 19 19 18 18 18 18 18 17 17 17 17 16 16 16 15 15 14 13 13 12 12 11 11 11 11 11
13 13 12 12 12 13 14 14 15 15 15 15 16 16 16 17 17 17 18 18 18 18 18 18 18 18 18 17 17 17 16 16 16 15 15 14 13 13 12 12 12 11 11 11
12 12 12 11 12 12 13 14 15 14 14 14 14 15 15 15 15 15 16 16 17 17 18 18 18 18 18 17 17 17 17 16 16 16 15 14 14 13 12 12 12 12 11 11
11 11 11 11 11 11 12 13 13 12 12 12 13 13 13 13 13 14 14 15 15 16 16 16 17 17 17 17 17 17 17 17 16 16 15 15 14 14 13 13 12 12 12 12
10 10 10 10 10 10 10 10 10 10 10 11 11 11 12 12 13 13 13 13 13 13 13 14 15 16 16 16 17 17 17 16 16 16 16 15 15 14 14 13 13 12 12 12
11 10 10 9 9 9 9 9 9 9 9 9 9 10 10 10 10 10 10 11 12 12 12 12 13 14 14 15 15 16 16 16 16 16 16 16 15 15 14 14 13 13 12 12
9 9 9 8 8 8 8 8 8 8 8 8 8 8 8 8 8 8 9 9 10 11 10 11 11 12 13 13 14 15 15 16 16 16 15 15 15 15 15 14 14 13 13 12
8 8 8 8 8 8 7 7 7 7 7 7 7 7 7 7 7 7 7 7 7 7 8 8 9 10 11 12 12 13 14 14 15 15 15 15 15 15 15 14 14 14 13 13
8 7 7 7 7 7 7 6 6 6 6 6 6 6 6 6 6 6 6 7 7 7 7 7 8 8 9 9 10 11 12 12 13 13 14 14 14 14 15 15 14 14 14 13
7 7 7 6 6 6 6 6 6 6 6 6 6 6 6 6 6 6 5 5 6 6 6 6 6 6 7 8 8 9 10 10 11 11 11 12 12 13 13 14 14 14 14 14
7 6 6 6 6 6 6 6 5 5 5 5 5 5 5 5 5 5 5 5 5 5 5 5 5 5 6 7 7 7 8 8 8 9 9 10 10 11 11 12 13 14 14 14
6 6 6 6 6 6 6 5 5 5 5 5 5 5 5 4 4 4 4 4 4 4 4 4 4 5 5 5 5 6 6 6 7 7 7 8 9 9 10 11 11 12 13 13
6 6 6 6 6 6 6 5 5 5 5 5 5 5 4 4 4 4 4 4 4 4 4 4 4 4 4 4 4 4 4 5 5 5 6 6 7 8 8 9 10 11 11 12
6 6 6 6 6 6 6 6 5 5 5 5 5 5 5 5 4 4 4 4 4 4 4 4 4 4 4 4 4 4 3 4 4 4 4 5 5 6 7 8 8 9 10 11
6 6 6 6 6 6 6 6 6 5 5 5 5 5 5 5 5 4 4 4 4 4 4 4 4 4 4 4 3 3 3 3 3 3 3 3 4 5 5 6 7 8 9 10
Wind_Speed
4 3 4 6 6 8 8 8 8 8 8 12 10 9 9 8 8 7 8 8 8 7 6 6 6 5 5 5 4 2 2 2 3 4 4 5 5 6 6 7 7 7 8 8
2 3 4 4 6 8 8 6 8 7 10 11 8 5 5 8 8 9 9 9 8 8 7 7 6 6 5 4 4 2 2 2 3 3 4 5 5 6 6 7 7 7 8 8
2 4 2 5 6 8 6 8 8 8 9 6 5 6 7 8 9 10 10 9 9 8 7 7 6 5 5 4 3 2 2 2 2 3 4 5 5 6 6 6 6 6 7 7
1 2 3 6 3 6 6 7 10 9 9 7 8 6 7 7 9 10 10 9 9 7 6 6 4 4 3 2 2 3 2 3 3 3 4 5 5 6 5 4 5 5 6 7
3 0 6 7 2 5 3 5 5 7 8 5 1 3 6 8 10 11 11 9 8 7 6 4 5 4 2 2 2 3 4 4 4 3 4 4 5 5 4 4 4 4 4 6
4 2 4 6 3 1 3 5 5 4 5 2 4 2 6 6 7 10 9 8 8 6 5 5 5 4 4 4 4 6 6 5 4 4 4 4 5 4 3 3 4 5 4 5
4 3 7 8 4 2 2 5 5 3 3 6 7 7 5 5 4 7 8 8 8 7 6 7 5 6 6 6 8 8 6 5 4 4 4 5 4 3 3 4 4 4 5 5
5 3 6 3 3 4 6 4 3 3 3 6 9 9 7 7 7 7 7 8 8 7 8 6 6 7 7 9 8 6 5 5 6 5 5 3 3 3 3 3 4 5 5 6
8 6 2 3 2 4 4 4 4 4 4 4 6 7 6 6 8 8 8 8 7 8 8 7 7 8 9 9 7 6 6 7 7 6 5 4 3 3 2 2 2 3 4 4
3 3 1 3 5 7 6 4 5 5 5 3 3 6 7 6 6 7 7 8 7 7 8 8 8 9 11 8 6 7 8 8 7 6 6 5 4 3 3 3 3 3 3 4
4 2 1 4 9 10 8 7 7 7 7 7 6 7 6 6 6 6 6 6 6 8 9 11 9 9 9 8 7 8 8 8 7 7 7 6 5 5 5 5 5 4 3 3
5 3 3 2 7 9 8 10 10 10 11 10 9 8 8 7 6 6 6 5 5 8 10 11 9 9 9 8 9 9 8 8 7 6 6 6 5 5 8 9 9 10 9 7
3 1 3 3 6 8 7 9 9 10 10 10 10 9 9 7 8 7 7 6 7 9 10 10 9 10 10 8 9 10 10 9 7 6 6 6 6 6 6 5 8 10 11 11
2 5 6 4 5 7 7 7 8 9 10 10 10 10 10 10 10 11 11 10 9 8 8 9 9 12 11 8 9 11 11 11 9 7 7 7 7 7 6 5 5 5 6 10
7 7 7 6 6 7 7 7 10 12 12 12 11 12 13 13 13 13 12 12 10 9 9 8 8 12 10 7 9 11 10 9 9 8 7 7 7 6 6 7 6 6 4 4
8 8 8 8 7 7 8 10 11 11 10 11 12 12 11 10 10 11 12 14 14 13 13 12 12 13 12 8 8 9 10 14 12 8 7 7 7 7 7 7 7 6 7 6
9 7 6 7 7 7 8 8 7 7 8 10 10 10 11 11 12 14 15 14 11 10 12 14 15 16 14 11 8 8 8 10 14 9 8 9 8 9 9 8 8 8 8 8
8 8 8 7 6 7 6 7 7 7 7 8 8 10 11 13 13 13 14 13 12 12 14 16 17 17 16 14 11 8 7 8 8 9 9 9 9 9 8 8 9 10 8 7
10 9 8 8 7 6 5 5 5 6 6 7 8 9 8 9 10 11 11 12 15 17 18 19 24 18 17 18 18 9 8 8 8 9 9 11 11 9 9 9 10 10 9 7
9 8 8 7 6 6 5 4 5 5 6 6 6 7 8 9 10 10 10 8 9 11 14 18 16 15 17 18 21 11 10 9 9 9 8 9 10 10 10 11 11 10 10 9
9 8 8 6 5 5 4 3 3 4 4 5 5 6 7 7 8 8 9 9 10 13 15 19 14 14 15 19 19 13 12 10 9 8 8 9 10 10 10 11 11 11 10 10
7 7 7 5 4 2 1 1 1 2 3 4 4 5 6 7 8 7 6 5 9 17 12 10 11 18 23 21 13 14 14 13 11 9 8 8 9 10 11 11 11 11 11 11
6 6 5 5 4 2 1 1 1 1 2 3 4 4 4 5 5 4 6 7 7 15 12 9 18 25 25 15 12 14 15 15 14 13 11 9 9 10 11 11 11 11 11 11
6 5 5 4 3 2 2 3 3 3 4 4 5 5 4 4 5 4 5 10 14 15 8 13 20 23 20 11 11 12 13 14 14 14 14 12 10 9 9 10 10 10 11 12
5 5 4 4 5 5 6 4 4 4 4 4 6 6 5 5 5 6 7 8 12 13 8 13 19 20 12 9 10 11 11 12 14 14 14 14 13 12 11 10 10 10 11 11
5 5 5 6 6 5 4 4 4 4 4 5 5 5 5 5 6 7 7 8 10 13 10 8 9 11 8 9 10 10 10 12 13 13 14 14 15 14 13 12 13 11 11 12
4 4 3 4 4 5 4 4 5 5 5 5 6 6 6 6 6 6 7 7 8 8 8 8 8 8 8 9 9 9 9 10 11 11 12 13 13 13 14 16 13 12 11 11
Wind_Direction
225 221 182 207 199 177 187 195 207 243 248 267 269 251 243 232 230 238 253 261 263 264 274 282 284 282 271 263 257 246 251 294 309 317 326 332 338 341 341 345 348 343 347 348
1 357 200 238 236 201 214 216 235 265 275 261 266 253 244 230 222 231 243 251 258 262 267 270 273 277 277 264 250 224 232 266 297 319 331 336 336 338 342 343 343 348 351 349
308 323 37 282 245 196 212 212 203 231 250 276 269 253 244 231 221 226 235 242 248 251 252 257 261 260 265 261 235 211 232 265 288 309 321 326 332 339 339 337 341 345 346 349
73 44 248 245 245 186 214 245 218 237 258 260 250 266 259 228 217 228 233 236 240 238 244 252 251 252 254 238 205 209 236 265 276 291 307 319 331 332 328 327 334 335 338 344
104 115 290 300 249 179 197 291 226 233 268 277 270 341 301 234 210 219 224 224 228 226 225 237 244 236 208 205 204 218 240 256 262 266 290 310 319 319 319 324 330 331 331 345
121 157 234 248 283 188 120 309 281 231 276 216 119 19 282 279 222 222 223 220 221 218 215 228 233 196 190 212 220 234 238 243 250 250 265 284 298 306 312 316 316 327 337 346
151 213 263 254 264 119 109 260 278 248 251 176 195 218 245 300 253 226 220 217 211 204 213 225 211 183 205 220 230 234 232 236 245 247 254 263 289 304 316 325 335 342 341 338
149 185 253 290 157 171 222 266 288 280 251 214 238 263 270 274 264 247 232 221 205 204 224 228 200 191 214 230 235 225 218 230 243 249 254 255 271 299 321 336 339 341 341 338
183 200 243 345 278 306 296 284 298 301 298 268 264 277 275 266 260 250 237 227 210 208 227 233 211 201 219 236 224 209 214 230 240 248 248 246 248 273 297 319 325 326 333 331
217 242 176 17 353 341 324 296 308 322 328 339 303 303 303 288 276 263 248 233 217 210 226 239 225 215 227 235 210 204 219 231 234 238 249 245 237 232 236 257 273 295 309 314
219 240 131 26 8 346 348 13 25 23 23 14 0 342 326 309 297 280 266 249 223 219 230 240 236 230 232 223 201 210 224 231 232 231 238 243 240 229 225 227 211 220 237 245
197 187 155 54 347 347 13 26 26 31 30 22 17 358 347 333 323 310 293 277 253 244 244 249 244 243 241 217 200 208 224 231 229 228 231 233 242 260 238 231 237 231 224 218
192 161 129 94 14 6 24 31 33 38 33 23 14 8 4 354 345 342 331 315 283 265 258 258 255 253 250 220 202 209 221 227 222 220 222 225 225 234 260 263 244 243 240 235
126 133 95 58 24 14 27 33 41 42 34 26 18 14 13 8 4 2 351 334 314 296 284 275 267 265 262 231 211 218 224 227 220 218 217 218 219 222 224 235 260 267 250 240
69 94 110 101 67 45 40 46 51 40 29 24 20 19 15 11 5 357 350 346 344 342 331 317 297 289 288 254 229 227 225 226 222 217 214 214 215 216 218 223 231 243 258 262
106 93 97 90 76 58 51 49 48 36 26 22 20 15 9 3 358 357 0 2 4 3 356 349 336 323 318 290 255 245 237 232 218 213 211 212 212 213 218 222 228 232 238 238
129 121 111 97 81 66 54 49 46 34 26 23 14 7 7 8 10 7 3 1 3 3 2 356 344 337 333 320 287 263 251 245 229 217 214 214 213 216 218 218 223 229 237 227
124 126 129 121 108 88 64 50 42 35 27 16 12 14 15 13 6 358 352 351 358 3 3 353 346 344 343 338 322 291 267 253 235 226 221 218 217 216 213 216 221 228 237 234
118 116 112 107 105 97 78 55 38 29 21 17 18 14 8 3 356 351 350 359 5 0 351 346 347 349 344 342 339 313 289 268 253 242 232 225 221 217 216 218 222 225 227 221
119 117 113 105 97 93 82 58 41 32 19 14 15 13 8 359 353 351 351 357 359 343 335 344 348 346 344 341 340 329 312 288 269 256 244 234 228 224 221 221 222 223 223 221
131 128 122 115 104 90 82 65 49 28 8 7 13 5 352 342 345 349 354 353 343 339 344 349 349 346 347 347 344 342 333 316 295 276 260 248 242 235 228 224 223 223 222 221
144 142 140 137 130 118 84 61 43 7 359 354 352 349 348 344 343 343 338 324 325 341 348 343 343 350 354 353 349 349 346 339 324 306 288 270 256 248 241 232 228 226 223 220
155 159 160 164 165 180 247 269 265 285 304 313 318 322 321 311 311 322 328 322 324 342 346 337 347 354 357 355 350 350 349 348 343 333 316 298 280 265 256 248 240 231 225 221
169 178 185 180 167 182 238 254 259 259 262 272 272 274 275 290 296 276 269 309 329 336 334 334 347 354 356 351 346 347 346 345 343 341 335 324 308 291 276 264 254 246 237 227
182 188 192 188 201 220 231 244 267 268 269 273 276 271 257 239 252 280 291 296 313 323 319 327 339 345 346 337 340 341 341 339 339 338 339 337 330 319 303 286 271 260 249 241
188 199 209 210 214 222 221 221 237 257 261 273 283 278 271 263 260 271 283 291 296 309 312 307 312 321 323 323 326 329 331 333 334 334 333 334 333 331 325 314 294 279 265 253
199 206 215 233 238 222 216 220 235 254 254 253 271 280 282 282 280 280 282 286 292 296 297 298 299 300 303 308 312 314 317 321 325 327 329 330 330 330 328 322 314 301 285 269
Height
1546 1544 1546 1547 1549 1555 1558 1560 1564 1555 1551 1538 1531 1529 1527 1527 1529 1531 1532 1532 1533 1532 1532 1531 1529 1528 1526 1524 1522 1520 1517 1515 1513 1510 1507 1504 1501 1498 1495 1492 1489 1486 1483 1480
1544 1543 1543 1545 1543 1548 1551 1551 1552 1550 1545 1528 1526 1525 1524 1524 1526 1527 1528 1530 1530 1530 1530 1529 1528 1526 1524 1522 1520 1518 1516 1514 1512 1509 1507 1504 1501 1498 1495 1493 1490 1487 1483 1480
1551 1547 1543 1547 1538 1541 1542 1542 1543 1544 1535 1525 1525 1523 1522 1522 1523 1524 1525 1527 1528 1528 1528 1527 1526 1525 1523 1521 1519 1517 1515 1513 1511 1508 1506 1503 1501 1498 1496 1493 1490 1487 1484 1481
1556 1549 1551 1541 1530 1531 1534 1533 1533 1531 1527 1524 1523 1521 1520 1520 1520 1521 1523 1524 1525 1526 1526 1526 1525 1523 1522 1520 1518 1516 1514 1512 1510 1508 1506 1503 1501 1498 1496 1493 1490 1487 1484 1481
1560 1557 1552 1535 1528 1528 1531 1530 1525 1526 1522 1521 1520 1520 1518 1517 1517 1518 1520 1521 1523 1524 1524 1524 1523 1522 1521 1519 1517 1515 1513 1511 1509 1507 1505 1503 1500 1498 1495 1493 1490 1487 1484 1481
1559 1554 1552 1536 1526 1525 1529 1532 1523 1522 1521 1520 1520 1525 1520 1516 1515 1516 1517 1519 1520 1521 1521 1521 1521 1520 1519 1518 1516 1514 1512 1511 1509 1507 1505 1502 1500 1498 1495 1492 1489 1487 1484 1481
1557 1555 1547 1529 1524 1526 1538 1536 1522 1520 1519 1519 1518 1518 1516 1515 1515 1515 1515 1516 1518 1518 1519 1519 1519 1518 1517 1516 1515 1513 1511 1510 1508 1506 1504 1502 1500 1497 1495 1492 1489 1486 1484 1481
1556 1554 1545 1524 1524 1528 1528 1521 1520 1519 1518 1517 1516 1514 1514 1513 1513 1513 1514 1514 1515 1515 1516 1517 1516 1516 1515 1514 1513 1511 1510 1508 1507 1505 1503 1502 1499 1497 1494 1492 1489 1486 1484 1481
1538 1537 1527 1524 1523 1523 1521 1520 1519 1518 1517 1516 1514 1513 1512 1511 1511 1511 1511 1512 1512 1513 1513 1514 1514 1513 1512 1512 1511 1509 1508 1507 1505 1504 1502 1501 1498 1496 1494 1491 1489 1486 1484 1481
1530 1525 1524 1523 1521 1519 1518 1517 1517 1516 1515 1514 1513 1512 1511 1509 1509 1509 1509 1509 1510 1510 1510 1510 1510 1510 1510 1510 1509 1507 1506 1504 1503 1502 1500 1499 1497 1495 1493 1491 1489 1486 1484 1481
1524 1522 1522 1521 1520 1518 1517 1516 1515 1515 1514 1513 1512 1510 1509 1508 1507 1506 1506 1506 1506 1506 1506 1506 1507 1507 1507 1506 1505 1504 1503 1502 1500 1499 1498 1496 1495 1493 1491 1490 1488 1486 1484 1481
1520 1519 1520 1522 1520 1518 1516 1515 1514 1514 1513 1512 1511 1509 1508 1507 1505 1504 1503 1503 1502 1502 1502 1502 1503 1503 1503 1502 1502 1500 1499 1498 1497 1496 1495 1493 1492 1491 1489 1488 1486 1484 1483 1481
1515 1516 1518 1520 1519 1518 1516 1515 1514 1513 1512 1511 1510 1509 1507 1505 1504 1502 1501 1500 1498 1498 1497 1497 1497 1497 1498 1498 1497 1496 1495 1494 1493 1492 1491 1490 1489 1488 1487 1486 1484 1483 1481 1480
1513 1515 1517 1518 1518 1517 1516 1516 1515 1514 1512 1511 1510 1508 1506 1504 1502 1500 1498 1497 1495 1494 1493 1492 1491 1491 1492 1492 1491 1490 1489 1489 1488 1487 1487 1486 1485 1484 1483 1482 1481 1480 1479 1478
1512 1513 1515 1517 1517 1517 1516 1515 1514 1512 1511 1510 1508 1506 1504 1502 1501 1499 1497 1494 1492 1490 1488 1486 1485 1484 1484 1484 1483 1483 1483 1483 1482 1482 1481 1481 1480 1479 1479 1478 1477 1477 1476 1476
1510 1512 1514 1515 1515 1515 1514 1513 1512 1511 1510 1509 1507 1506 1504 1503 1501 1498 1495 1492 1489 1486 1484 1481 1479 1478 1477 1475 1474 1474 1475 1475 1475 1475 1475 1475 1474 1474 1473 1473 1473 1472 1472 1472
1508 1511 1512 1513 1513 1513 1513 1513 1512 1512 1510 1509 1507 1506 1504 1501 1499 1495 1493 1490 1488 1485 1482 1478 1475 1473 1470 1468 1467 1466 1466 1467 1467 1467 1468 1468 1468 1467 1467 1467 1467 1467 1467 1468
1507 1509 1510 1511 1512 1512 1513 1513 1512 1511 1510 1509 1507 1505 1502 1499 1497 1494 1491 1488 1486 1483 1479 1475 1472 1468 1465 1462 1460 1459 1458 1458 1458 1458 1459 1460 1460 1460 1460 1460 1460 1460 1461 1462
1506 1508 1509 1510 1511 1512 1512 1512 1511 1510 1509 1508 1506 1504 1502 1499 1497 1494 1490 1486 1482 1477 1474 1471 1468 1465 1461 1458 1455 1452 1450 1449 1449 1450 1450 1451 1452 1452 1452 1453 1453 1453 1454 1455
1505 1507 1508 1509 1510 1511 1511 1511 1510 1509 1508 1507 1505 1503 1501 1498 1495 1492 1489 1486 1482 1479 1474 1470 1466 1461 1457 1454 1450 1447 1444 1442 1441 1441 1441 1442 1443 1443 1444 1444 1445 1445 1446 1447
1504 1506 1507 1508 1509 1509 1509 1509 1509 1508 1507 1506 1504 1502 1500 1497 1495 1491 1487 1484 1481 1477 1473 1469 1464 1459 1455 1451 1447 1443 1440 1436 1434 1433 1433 1433 1433 1434 1435 1435 1436 1436 1437 1438
1502 1504 1505 1507 1507 1508 1508 1508 1508 1507 1506 1505 1503 1501 1499 1496 1494 1491 1488 1485 1480 1476 1472 1467 1463 1458 1454 1449 1445 1440 1436 1432 1429 1427 1425 1424 1424 1424 1425 1426 1426 1427 1428 1429
1500 1502 1504 1505 1506 1506 1507 1507 1506 1506 1505 1503 1502 1500 1498 1495 1493 1490 1486 1483 1479 1476 1471 1467 1462 1457 1453 1448 1443 1438 1433 1429 1425 1422 1419 1417 1416 1415 1415 1416 1416 1417 1418 1419
1498 1500 1502 1503 1504 1505 1505 1505 1505 1504 1503 1502 1500 1498 1496 1494 1492 1489 1486 1483 1479 1475 1471 1466 1461 1456 1451 1446 1441 1436 1431 1427 1422 1418 1415 1411 1409 1407 1406 1405 1405 1406 1407 1408
1496 1498 1500 1501 1501 1502 1502 1502 1502 1501 1500 1499 1498 1496 1494 1492 1489 1486 1484 1480 1477 1473 1469 1465 1460 1455 1450 1445 1440 1435 1430 1425 1420 1416 1411 1407 1403 1400 1398 1396 1395 1395 1396 1396
1494 1495 1496 1497 1498 1498 1498 1498 1498 1497 1496 1495 1494 1493 1491 1489 1487 1484 1481 1477 1474 1470 1466 1462 1458 1453 1448 1443 1438 1433 1428 1422 1417 1412 1407 1403 1398 1394 1391 1388 1386 1385 1384 1385
1490 1492 1493 1493 1494 1494 1494 1494 1494 1493 1493 1491 1490 1488 1487 1485 1482 1479 1476 1473 1470 1466 1462 1458 1454 1450 1446 1441 1436 1431 1426 1421 1415 1410 1404 1399 1394 1389 1384 1380 1377 1375 1374 1373